www.pogodaiklimat.ru
ПОГОДА в Пунта Индио
Время
(UTC), дата
15 20.10
18 20.10
21 20.10
00 21.10
12 21.10
15 21.10
18 21.10
21 21.10
00 22.10
12 22.10
15 22.10
18 22.10
21 22.10
00 23.10
12 23.10
15 23.10
18 23.10
21 23.10
00 24.10
12 24.10
15 24.10
18 24.10
21 24.10
00 25.10
12 25.10
15 25.10
18 25.10
21 25.10
00 26.10
12 26.10
15 26.10
18 26.10
21 26.10
00 27.10
Ветер
(напр.,м/с)
Видим. Явления Облачность Т
(С)
Тd
(С)
f
(%)
Тe
(С)
Тes
(С)
Комфортность P
(гПа)
Po
(гПа)
Тmin
(С)
Tmax
(С)
R
(мм)
R24
(мм)
S
(см)
ЮВ 14 10 км 10/0 2000 м
[Ac As Cs]
+15.0 +6.4 56 +12 +12 1026.8 1024.1
Ю 18 10 км {дождь} 8/0
[Ac As Cs]
+16.5 +4.5 45 +14 +14 1027.4 1024.8 0.5
Ю 17 10 км 5/0
[Ac As Cs]
+14.0 +5.6 57 +10 +10 1027.7 1025.0
Ю 14 10 км ясно +11.0 +4.4 64 +6 +6 1028.1 1025.4 +11.0 +17.0
ЮВ 20 10 км ясно +15.6 +11.1 75 +12 +12 1029.4 1026.8 +9.5 +15.6 0.5
ЮВ 22 10 км 4/1 540 м
[Cu hum Cs]
+17.2 +10.4 64 +15 +15 1029.3 1026.6
ЮВ 25 10 км 9/0
[Ac und Cs]
+15.6 +9.4 67 +12 +12 1027.6 1024.9
ЮВ 23 10 км слаб. дождь 9/0 2000 м
[Ac As Cs]
+14.8 +9.9 72 +11 +11 1025.8 1023.2
В 20 10 км в посл. час дождь 10/0
[Ac As]
+14.5 +10.7 78 +11 +11 1026.2 1023.6 +14.5 +17.5 0.0 216.2
В 20 4000 м дождь {гроза} туман 10/8 240 м
[Frnb As op]
+14.5 +14.5 100 +11 +11 1025.0 1022.4 +11.0 +15.0 35
В 19 5000 м слаб. морось {гроза, дождь} 10/8 240 м
[Frnb As op]
+14.0 +14.0 100 +10 +10 1022.0 1019.3
В 12 9000 м в посл. час гроза {дождь, морось} туман 10/8 240 м
[Frnb As op]
+15.0 +14.1 94 +12 +12 1019.6 1016.9 0.5
ЮВ 9 8000 м 10/8 240 м
[Frnb As op]
+15.0 +14.1 94 +13 +13 1018.8 1016.1
ЮВ 11 8000 м слаб. ливневой дождь, в посл. час гроза {морось} туман 10/8 240 м
[Frnb As op]
+14.5 +14.0 97 +12 +12 1019.4 1016.8 +13.5 +15.0 0.0
В 6 8000 м дымка 10/10 360 м
[St]
+17.5 +16.6 94 +17 +17 1016.8 1014.1 +14.0 +17.5 1
В 5 10 км 10/10 300 м
[St]
+19.6 +17.0 85 +22 +22 комфорт 1016.1 1013.4
В 7 10 км 9/9 450 м
[Frnb]
+21.3 +17.4 78 +25 +26 комфорт 1015.0 1012.4
Ю 8 10 км 6/6 450 м
[Frnb]
+19.0 +16.5 85 +20 +20 1014.4 1011.7
Ю 10 9000 м дымка 10/10 540 м
[St]
+16.2 +15.8 97 +14 +14 1015.7 1013.0 +16.2 +21.5
Ю 7 9000 м дымка 10/10 300 м
[St]
+17.1 +15.7 91 +16 +16 1016.1 1013.4 +13.3 +17.1
Ю 7 10 км 10/10 450 м
[St]
+19.0 +16.5 85 +20 +20 1015.3 1012.6
Ю 10 10 км 9/9 540 м
[Sc]
+19.6 +17.0 85 +21 +21 комфорт 1013.7 1011.0
Ю 10 900 м туман 10/10 30 м
[St]
+17.0 +16.1 94 +15 +15 1012.5 1009.8
ЮВ 10 <100 м туман ?/? +16.1 +16.1 100 +14 +14 1013.0 1010.4 +16.1 +20.3
В 10 8000 м дымка 10/10 240 м
[Frnb]
+19.0 +17.7 92 +20 +20 1009.8 1007.2 +15.0 +19.0
С 8 10 км 10/6 240 м
[Frnb As op]
+21.5 +15.7 70 +25 +25 комфорт 1010.1 1007.4
В 7 5000 м дождь туман 10/4 240 м
[Frnb As op]
+21.0 +16.4 75 +24 +25 комфорт 1007.4 1004.8 0.0
В 7 7000 м дымка 10/4 240 м
[Frnb Ac As]
+19.0 +18.2 95 +20 +20 1006.8 1004.1
В 4 5000 м слаб. морось туман 8/4 240 м
[Frnb As op]
+18.5 +17.7 95 +19 +19 1008.2 1005.6 +18.5 +21.5
Ю 18 10 км 5/5 450 м
[Sc diur, vesp]
+16.6 +12.9 79 +14 +14 1014.1 1011.4 +13.5 +18.5 3
Ю 17 10 км 1/1 450 м
[Cu hum]
+18.5 +9.7 57 +17 +17 1014.5 1011.8
Ю 15 10 км 4/3 360 м
[Cu hum Cs]
+19.8 +9.4 51 +20 +20 1013.6 1010.9
ЮВ 11 10 км 3/0
[Cs]
+16.6 +9.8 64 +15 +15 1013.9 1011.2
Ю 6 10 км 1/0
[Cs]
+12.0 +7.9 76 +9 +9 1014.8 1012.1 +12.0 +19.8
Местоположение метеостанции Пунта Индио (Аргентина): широта -35.40 долгота -57.30 высота над уровнем моря 16 м.
В архиве по умолчанию представлена погода в Пунта Индио за последнюю неделю. Архивные данные за месяц целиком и за предыдущие месяцы, начиная с января 2011 года, Вы можете получить, выбрав интересующий диапазон дат из раскрывающегося списка и нажав кнопку "Найти!".
*Определитесь, кто Вы:
Внимание! Время в таблицах - всемирное. Для получения местного времени необходимо прибавить поправку, которая равна -3 ч.
Смотрите также архив погоды в соседних городах и на ближайших метеорологических станциях:
Партнеры нашего сайта:      
Пояснения к столбцам:
  • Ветер - указаны скорость ветра в м/с - средняя за 10 мин, порывы в срок и между сроками (в фигурных скобках) и направление, откуда дует ветер: С - северный,
  • СВ - северо-восточный, В - восточный, ЮВ - юго-восточный, Ю - южный, ЮЗ - юго-западный, З - западный, СЗ - северо-западный.
  • Видимость - горизонтальная дальность видимости в метрах или километрах. При видимости от 1 до 10 км при отсутствии осадков обычно наблюдается дымка, при ухудшении видимости до 1 км и менее - туман. В сухую погоду видимость может ухудшаться дымом, пылью или мглою.
  • Явления - указаны атмосферные явления, наблюдавшиеся в срок или в последний час перед сроком; фигурными скобками обозначены явления, наблюдавшиеся между сроками (за 1-3 часа до срока); квадратными скобками обозначены град или гололедные отложения с указанием их диаметра в мм.
  • Облачность - указаны через наклонную черту общая и нижняя облачность в баллах и высота нижней границы облаков в метрах; квадратными скобками обозначены формы облаков: Ci - перистые, Cs - перисто-слоистые, Cc - перисто-кучевые, Ac - высококучевые, As - высокослоистые, Sc - слоисто-кучевые, Ns - слоисто-дождевые, Cu - кучевые, Cb - кучево-дождевые. Подробнее классификацию облаков см. в Атласе облаков (PDF).
  • T - Температура воздуха - температура, измеренная на высоте 2 м над землей.
  • Td - Температура точки росы - температура, при понижении до которой содержащийся в воздухе водяной пар достигнет насыщения.
  • f - Относительная влажность воздуха - влажноcть воздуха, измеренная на высоте 2 м над землей.
  • Te - Эффективная температура - температура, которую ощущает одетый по сезону человек в тени. Характеристика душности погоды. При расчете учитывается влияние влажности воздуха и скорости ветра на теплоощущения человека.
  • Tes - Эффективная температура на солнце - температура, которую ощущает человек, с поправкой на солнечный нагрев. Характеристика знойности погоды. Зависит от высоты солнца над горизонтом, облачности и скорости ветра. Ночью, в пасмурную погоду, а также при ветре 12 м/с и более поправка равна нулю.
  • P - Атмосферное давление - приведенное к уровню моря атмосферное давление.
  • Po - Атмосферное давление - измеренное на уровне метеостанции атмосферное давление.
  • Tmin - Минимальная температура - минимум температуры воздуха на высоте 2 м над землей.
  • Tmax - Максимальная температура - максимум температуры воздуха на высоте 2 м над землей.
  • R - Количество осадков - Количество выпавших осадков за период времени, мм. При наведении курсора мыши на число - период времени, за который выпало указанное количество осадков.
  • R24 - Количество осадков - Количество выпавших осадков за 24 часа, мм.
  • S - Снежный покров - Высота снежного покрова, см. При наведении курсора мыши на число - состояние снежного покрова и степень покрытия местности в баллах.